Regional Weather Roundup
Issued by NWS Sioux Falls, SD

Home | Current Version | Previous Version | Text Only | Print | Product List | Glossary Off
Versions: 1 2 3 4 5 6 7 8 9 10 11 12 13 14 15 16 17 18 19 20 21 22 23 24 25 26 27 28 29 30 31 32 33 34 35 36 37 38 39 40 41 42 43 44 45 46 47 48 49 50

000
ASUS43 KFSD 280410
RWRFSD

WEATHER ROUNDUP FOR SE SOUTH DAKOTA/SW MINNESOTA/NW IOWA
NATIONAL WEATHER SERVICE SIOUX FALLS SD
1000 PM CST FRI FEB 27 2015

NOTE: "FAIR" INDICATES FEW OR NO CLOUDS BELOW 12,000 FEET WITH NO
SIGNIFICANT WEATHER AND OR OBSTRUCTIONS TO VISIBILITY.


SDZ038>040-050-052>070-280500-
SOUTHEAST SOUTH DAKOTA

CITY           SKY/WX    TMP DP  RH WIND       PRES   REMARKS
CHAMBERLAIN    CLEAR     10  -3  54 SE9       30.28S WCI  -2
HURON          CLEAR      9   2  73 SE15      30.35S WCI  -8
MADISON        FAIR       1   0  92 S10       30.38S WCI -14
MITCHELL       CLEAR     12   4  70 S15       30.39S WCI  -4
SIOUX FALLS    CLEAR      8  -1  66 S12       30.43S WCI  -7
WINNER         FAIR      18  -4  37 S14       30.23S WCI   4
YANKTON        CLEAR     12   1  62 SE10      30.45R WCI  -1
$$

MNZ071-072-080-081-089-090-097-098-280500-
SOUTHWEST MINNESOTA

CITY           SKY/WX    TMP DP  RH WIND       PRES   REMARKS
FAIRMONT       PTCLDY     1  -4  78 S9        30.50S WCI -14
JACKSON        CLEAR      1  -6  71 S8        30.49R WCI -12
LUVERNE        CLEAR      3  -2  78 S6        30.47S WCI  -8
MARSHALL       CLEAR      3  -6  66 S8        30.46S WCI -10
MONTEVIDEO     CLEAR      5  -2  72 SW8       30.47F WCI  -8
PIPESTONE      CLEAR      3  -2  78 S10       30.41S WCI -12
REDWOOD FALLS  CLEAR      3  -4  72 S10       30.50R WCI -12
TRACY          CLEAR      5  -1  75 S14       30.46S WCI -12
WINDOM         CLEAR      1  -2  85 S5        30.47S WCI  -8
WORTHINGTON    CLEAR     19  -9  27 S14       30.48R WCI   6
$$

IAZ001>003-012>014-020>022-031-032-NEZ013-014-SDZ071-280500-
NORTHWEST IOWA

CITY           SKY/WX    TMP DP  RH WIND       PRES   REMARKS
CHEROKEE       CLEAR      0  -5  79 S5        30.52S WCI -10
DENISON        PTCLDY     1  -4  78 E3        30.51S
ESTHERVILLE    CLEAR     -7 -11  83 S9        30.51R WCI -24
LE MARS        CLEAR      3  -2  78 S3        30.51S
ORANGE CITY    CLEAR      3  -4  72 CALM      30.48S
SHELDON        CLEAR      1  -6  71 S9        30.48R WCI -14
SIOUX CITY     CLEAR      3  -2  79 E7        30.51S WCI  -9
SPENCER        CLEAR     -4 -11  72 S10       30.51R WCI -21
STORM LAKE     PTCLDY     0  -6  78 S9        30.50F WCI -16
$$

ABBREVIATIONS USED IN REMARKS
   TC - TEMPERATURE IN CELSIUS
  WCI - WIND CHILL INDEX
   HX - HEAT INDEX
  VSB - VISIBILITY



USA.gov is the U.S. government's official web portal to all federal, state and local government web resources and services.